Terminal Aerodrome Forecast
Issued by NWS Tampa Bay Area, FL

Home | Current Version | Previous Version | Text Only | Print | Product List | Glossary On
Versions: 1 2 3 4 5 6 7 8 9 10 11 12 13 14 15 16 17 18 19 20 21 22
000
FTUS42 KTBW 231100
TAFSRQ
TAF
KSRQ 231131Z 2312/2412 30007KT P6SM SCT025
      TEMPO 2312/2314 BKN025
     FM231800 29011KT P6SM SKC
     FM240200 VRB03KT P6SM SKC=

USA.gov is the U.S. government's official web portal to all federal, state and local government web resources and services.